[[{"header":{"parameterUnit":"m.s-1","parameterCategory":1,"la1":30.2991,"la2":30.254,"lo1":-89.0895,"lo2":-89.0444,"dy":0.0017,"dx":0.0017,"nx":28,"ny":28,"refTime":"2024-07-02T21:00:00:Z","depth":0,"parameterNumber":2,"parameterNumberName":"U-component_of_WINDS"},"data":[0,0,0,0,0,0,0,0,0,0,0,0,0,0,0,0,0,0,0,0,0,0,0,0,0,0,0,0,0,0,0,0,0,0,0,0,0,0,0,0,0,0,0,0,0,0,0,0,0,0,0,0,0,0,0,0,0,0,-0.9113,-0.9112,0,-0.906,-0.906,-0.9059,-0.9044,-0.9044,-0.9044,-0.9045,-0.899,-0.8989,-0.8987,0,0,0,0,0,0,0,0,0,0,0,0,0,-0.92,-0.9198,-0.9113,-0.9112,-0.9112,-0.906,-0.906,-0.9059,-0.9044,-0.9044,-0.9044,-0.9045,-0.8991,-0.8989,-0.8987,0,0,0,0,0,0,0,0,0,0,0,0,0,-0.9156,-0.9198,-0.9113,-0.9098,-0.9096,-0.9061,-0.906,-0.9059,-0.9044,-0.9044,-0.9044,-0.9045,-0.8992,-0.8989,-0.8987,-0.8963,0,0,-0.8979,-0.8978,0,0,0,0,0,0,0,0,-0.9159,-0.9153,-0.9101,-0.9099,-0.9097,-0.9059,-0.907,-0.9027,-0.9043,-0.9063,-0.9045,-0.9045,-0.9013,-0.9009,-0.8998,-0.896,-0.8958,-0.8978,-0.8977,-0.8976,-0.8975,0,0,0,0,0,0,0,-0.9162,-0.9155,-0.9092,-0.91,-0.9097,-0.9094,-0.9088,-0.9062,-0.9036,-0.9062,-0.906,-0.9055,-0.9012,-0.9,-0.8996,-0.8957,-0.8979,-0.8976,-0.8975,-0.8974,-0.8897,-0.8896,0,0,0,0,0,0,-0.9167,-0.9158,-0.9094,-0.9091,-0.9129,-0.9092,-0.9085,-0.9071,-0.9037,-0.9032,-0.9054,-0.9054,-0.9004,-0.8999,-0.8994,-0.8964,-0.8976,-0.8973,-0.8972,-0.8897,-0.8897,-0.8896,0,0,0,0,0,0,-0.9169,-0.9162,-0.9096,-0.9124,-0.9115,-0.909,-0.9073,-0.9069,-0.9058,-0.9031,-0.9026,-0.9047,-0.9005,-0.8998,-0.8971,-0.8962,-0.8972,-0.897,-0.8898,-0.8897,-0.8896,-0.8903,0,0,0,0,0,0,-0.9172,-0.9163,-0.9153,-0.9124,-0.9114,-0.9073,-0.9073,-0.9068,-0.9054,-0.9053,-0.9023,-0.9019,-0.9004,-0.8974,-0.8968,-0.8958,-0.8968,-0.8898,-0.8897,-0.8897,-0.8903,-0.8902,-0.8902,0,0,0,0,0,-0.9175,-0.9157,-0.9153,-0.9145,-0.9101,-0.9073,-0.9067,-0.9051,-0.9053,-0.9043,-0.9026,-0.902,-0.8964,-0.8972,-0.8964,-0.8954,-0.8899,-0.8898,-0.8897,-0.8904,-0.8903,-0.8902,0,0,0,0,0,0,-0.9186,-0.9153,-0.9148,-0.912,-0.9099,-0.907,-0.9057,-0.905,-0.9028,-0.9029,-0.901,-0.9003,-0.8977,-0.8963,-0.8972,-0.8929,-0.8931,-0.8929,-0.8939,-0.8938,-0.8937,-0.8941,-0.8966,0,0,0,0,0,-0.9185,-0.9165,-0.9137,-0.9115,-0.9105,-0.9083,-0.907,-0.9059,-0.9037,-0.9028,-0.9009,-0.8987,-0.8965,-0.8951,-0.8929,-0.8901,-0.8895,-0.8891,-0.889,-0.8889,-0.8887,-0.8871,-0.8869,-0.8892,-0.8892,-0.8892,0,0,-0.9184,-0.9163,-0.9151,-0.9117,-0.9099,-0.9078,-0.9076,-0.9053,-0.9038,-0.9025,-0.8998,-0.8983,-0.8958,-0.893,-0.8917,-0.8917,-0.8879,-0.8888,-0.8887,-0.8885,-0.887,-0.8868,-0.8866,-0.8891,-0.8892,-0.8892,0,0,-0.9169,-0.9152,-0.9131,-0.9114,-0.9088,-0.9074,-0.9069,-0.9041,-0.903,-0.9003,-0.8993,-0.8974,-0.8936,-0.8918,-0.8904,-0.8884,-0.8877,-0.8877,-0.8873,-0.8858,-0.8856,-0.8854,-0.8846,-0.8844,-0.8875,-0.8875,-0.8875,0,-0.917,-0.9138,-0.9122,-0.91,-0.9085,-0.9073,-0.9052,-0.9036,-0.9004,-0.8994,-0.8995,-0.8947,-0.8929,-0.8898,-0.8893,-0.8882,-0.8876,-0.888,-0.8857,-0.8855,-0.8854,-0.8846,-0.8843,-0.8875,-0.8875,-0.8875,-0.8875,0,-0.914,-0.9118,-0.9105,-0.9075,-0.9058,-0.9037,-0.9018,-0.9003,-0.8994,-0.898,-0.8952,-0.893,-0.8904,-0.8895,-0.8886,-0.8862,-0.8863,-0.8861,-0.8863,-0.8852,-0.8845,-0.8842,-0.8876,-0.8875,-0.8875,-0.8875,0,0,-0.9131,-0.9092,-0.9088,-0.9074,-0.9044,-0.9027,-0.9005,-0.8979,-0.8967,-0.8945,-0.8927,-0.8895,-0.8893,-0.8877,-0.8866,-0.8853,-0.8838,-0.8852,-0.8851,-0.885,-0.881,-0.8811,-0.8808,-0.8833,-0.8833,-0.8832,-0.8812,0,-0.9113,-0.9074,-0.9059,-0.9027,-0.9006,-0.8994,-0.8975,-0.8955,-0.8941,-0.8922,-0.8906,-0.8884,-0.8883,-0.8873,-0.886,-0.8843,-0.8829,-0.8844,-0.8816,-0.8815,-0.8822,-0.8805,-0.8806,-0.8788,-0.8809,-0.8808,-0.8808,0,-0.9087,-0.9065,-0.9031,-0.9004,-0.8994,-0.8978,-0.8953,-0.8934,-0.8911,-0.8902,-0.8885,-0.8874,-0.8851,-0.8855,-0.8823,-0.8833,-0.8821,-0.8811,-0.881,-0.8806,-0.8811,-0.88,-0.8782,-0.8779,-0.8803,-0.8804,-0.8804,0,-0.9083,-0.9045,-0.902,-0.9009,-0.8976,-0.8965,-0.8951,-0.8928,-0.8914,-0.8892,-0.8882,-0.8858,-0.8845,-0.8826,-0.881,-0.8814,-0.8779,-0.8782,-0.8771,-0.8771,-0.8763,-0.8764,-0.8742,-0.8756,-0.8756,-0.8756,-0.8756,0,-0.9064,-0.9044,-0.9018,-0.9002,-0.8979,-0.8962,-0.894,-0.8925,-0.8905,-0.8886,-0.8875,-0.8857,-0.8837,-0.8817,-0.8804,-0.8779,-0.8774,-0.8765,-0.8762,-0.8766,-0.8767,-0.8757,-0.8758,-0.8756,-0.8756,-0.8756,-0.8756,0,-0.9056,-0.9038,-0.901,-0.8982,-0.8974,-0.8958,-0.8934,-0.8919,-0.8904,-0.8881,-0.8874,-0.8852,-0.8828,-0.881,-0.8779,-0.877,-0.8744,-0.874,-0.8751,-0.875,-0.874,-0.8741,-0.8711,-0.8706,-0.8723,-0.8723,-0.8723,0,-0.9045,-0.9029,-0.8999,-0.8986,-0.8972,-0.8951,-0.8936,-0.8918,-0.8903,-0.8876,-0.8864,-0.8839,-0.8818,-0.878,-0.8761,-0.8737,-0.8733,-0.8724,-0.873,-0.8734,-0.8733,-0.8734,-0.8732,-0.8724,-0.8723,-0.8723,-0.8723,0,-0.9028,-0.9019,-0.8998,-0.8974,-0.8956,-0.8936,-0.8916,-0.8906,-0.8885,-0.8868,-0.8844,-0.8828,-0.8796,-0.8772,-0.8746,-0.8732,-0.8724,-0.8722,-0.8718,-0.8722,-0.8729,-0.8725,-0.8749,-0.8723,-0.8723,-0.8723,-0.8723,-0.8723,-0.9018,-0.9003,-0.8979,-0.8956,-0.8939,-0.892,-0.8904,-0.8888,-0.8867,-0.884,-0.8831,-0.8806,-0.8783,-0.8748,-0.8733,-0.8713,-0.8713,-0.8707,-0.8706,-0.8705,-0.8705,-0.8732,-0.8708,-0.8708,-0.8708,-0.8708,-0.8708,0,-0.8999,-0.8983,-0.8962,-0.8934,-0.8916,-0.891,-0.8888,-0.8873,-0.8851,-0.883,-0.881,-0.8782,-0.8758,-0.8737,-0.8713,-0.87,-0.8696,-0.8695,-0.8695,-0.8692,-0.8707,-0.8712,-0.8698,-0.8698,-0.8698,-0.8698,-0.8698,-0.8698,-0.8987,-0.8962,-0.8951,-0.8917,-0.8901,-0.8876,-0.8864,-0.8847,-0.883,-0.8799,-0.8779,-0.8766,-0.8745,-0.8719,-0.8697,-0.8691,-0.8683,-0.8682,-0.8676,-0.869,-0.8691,-0.8692,-0.8697,-0.868,-0.868,-0.8662,-0.8662,-0.8662]},{"header":{"parameterUnit":"m.s-1","parameterCategory":1,"la1":30.2991,"la2":30.254,"lo1":-89.0895,"lo2":-89.0444,"dy":0.0017,"dx":0.0017,"nx":28,"ny":28,"refTime":"2024-07-02T21:00:00:Z","depth":0,"parameterNumber":3,"parameterNumberName":"V-component_of_WINDS"},"data":[0,0,0,0,0,0,0,0,0,0,0,0,0,0,0,0,0,0,0,0,0,0,0,0,0,0,0,0,0,0,0,0,0,0,0,0,0,0,0,0,0,0,0,0,0,0,0,0,0,0,0,0,0,0,0,0,0,0,3.8831,3.8831,0,3.8864,3.8865,3.8865,3.8858,3.8857,3.8857,3.8856,3.8889,3.889,3.8892,0,0,0,0,0,0,0,0,0,0,0,0,0,3.876,3.8762,3.8831,3.8831,3.8832,3.8864,3.8865,3.8865,3.8858,3.8857,3.8857,3.8856,3.8888,3.889,3.8892,0,0,0,0,0,0,0,0,0,0,0,0,0,3.8792,3.8762,3.8831,3.8832,3.8833,3.8864,3.8865,3.8865,3.8858,3.8857,3.8856,3.8856,3.8888,3.889,3.8892,3.8924,0,0,3.8899,3.89,0,0,0,0,0,0,0,0,3.879,3.8795,3.8832,3.8832,3.8833,3.8856,3.8852,3.8885,3.8859,3.8849,3.8856,3.8855,3.8879,3.8881,3.889,3.8925,3.8927,3.8899,3.89,3.8901,3.8902,0,0,0,0,0,0,0,3.8788,3.8793,3.8844,3.8832,3.8833,3.8831,3.8834,3.8858,3.8868,3.8849,3.8849,3.8853,3.8879,3.8888,3.889,3.8927,3.8899,3.8901,3.8902,3.8903,3.8992,3.8993,0,0,0,0,0,0,3.8785,3.8791,3.8843,3.8845,3.8809,3.8833,3.8837,3.885,3.8868,3.887,3.8854,3.8853,3.8884,3.8888,3.8892,3.8931,3.8901,3.8903,3.8904,3.8991,3.8992,3.8993,0,0,0,0,0,0,3.8784,3.879,3.8842,3.8818,3.8825,3.8835,3.8849,3.8851,3.886,3.8871,3.8873,3.8861,3.8884,3.8888,3.8916,3.8932,3.8904,3.8906,3.899,3.8991,3.8993,3.901,0,0,0,0,0,0,3.8782,3.879,3.8802,3.8819,3.8826,3.8866,3.885,3.8852,3.8864,3.8862,3.8879,3.8881,3.8883,3.8913,3.8918,3.8934,3.8908,3.8988,3.899,3.8992,3.9008,3.9012,3.9015,0,0,0,0,0,3.8779,3.8805,3.8803,3.8809,3.8842,3.8867,3.8871,3.8875,3.8865,3.8877,3.8885,3.888,3.8929,3.8916,3.8922,3.8939,3.8987,3.899,3.8992,3.9006,3.9011,3.9015,0,0,0,0,0,0,3.8789,3.8807,3.8805,3.8836,3.885,3.8866,3.8882,3.8879,3.8896,3.8894,3.8897,3.8901,3.8929,3.8937,3.8922,3.8971,3.8957,3.8961,3.8965,3.897,3.8974,3.8971,3.8909,0,0,0,0,0,3.8795,3.8814,3.8829,3.8855,3.8862,3.8871,3.8882,3.8884,3.8898,3.8904,3.8914,3.8927,3.8946,3.8958,3.8976,3.9009,3.9013,3.9023,3.9027,3.903,3.9033,3.9052,3.9057,3.9001,3.9001,3.9001,0,0,3.8807,3.8819,3.8831,3.8857,3.8869,3.8889,3.8876,3.8897,3.8913,3.8907,3.8934,3.8942,3.8958,3.8988,3.9002,3.8995,3.9049,3.9033,3.9035,3.9037,3.9055,3.906,3.9065,3.9003,3.9003,3.9002,0,0,3.8839,3.885,3.8874,3.8886,3.8903,3.8909,3.8915,3.8931,3.8936,3.8964,3.896,3.8978,3.901,3.9022,3.9032,3.907,3.9066,3.9076,3.9095,3.9113,3.9117,3.9121,3.9136,3.9141,3.9079,3.9079,3.9079,0,3.8852,3.8883,3.8886,3.8909,3.8921,3.8918,3.8942,3.8953,3.8975,3.8983,3.8975,3.9016,3.9026,3.906,3.907,3.9078,3.9085,3.9074,3.9117,3.912,3.9124,3.9138,3.9144,3.908,3.908,3.908,3.908,0,3.8898,3.8919,3.8936,3.8959,3.8973,3.8996,3.9003,3.9017,3.9017,3.9024,3.9052,3.9064,3.9085,3.9093,3.9093,3.9128,3.9123,3.9116,3.9102,3.9131,3.9144,3.9149,3.9082,3.9081,3.9081,3.9081,0,0,3.8937,3.8962,3.8969,3.8979,3.8999,3.9015,3.9038,3.9059,3.9071,3.9087,3.9107,3.9134,3.9128,3.914,3.9141,3.9157,3.9188,3.9148,3.9149,3.9156,3.9228,3.9234,3.924,3.9186,3.9187,3.9188,3.9227,0,3.8972,3.9014,3.9018,3.9056,3.9076,3.9073,3.9094,3.9108,3.9115,3.9133,3.914,3.916,3.915,3.9157,3.9173,3.9181,3.9203,3.9178,3.9205,3.9205,3.9201,3.9246,3.9252,3.9289,3.9232,3.9233,3.9233,0,3.9019,3.9037,3.9076,3.9094,3.9102,3.9121,3.9141,3.9158,3.9174,3.9178,3.9192,3.9192,3.9216,3.92,3.9234,3.9217,3.9228,3.9234,3.9236,3.9239,3.9222,3.9251,3.93,3.9306,3.9241,3.9241,3.924,0,3.9045,3.9078,3.9107,3.9116,3.9137,3.915,3.9159,3.9174,3.9187,3.9205,3.9213,3.9233,3.9244,3.926,3.9265,3.9253,3.9299,3.9283,3.9303,3.9303,3.9313,3.9312,3.9365,3.9319,3.9319,3.9319,3.9319,0,3.9084,3.9108,3.9119,3.9136,3.9164,3.9169,3.9196,3.9204,3.9218,3.9237,3.9236,3.9254,3.9259,3.9278,3.9282,3.931,3.9315,3.9319,3.932,3.932,3.9319,3.9327,3.9325,3.932,3.932,3.9319,3.9319,0,3.9117,3.9125,3.9156,3.9174,3.9179,3.9199,3.9214,3.9231,3.9238,3.9262,3.9268,3.9279,3.9301,3.9308,3.9334,3.9337,3.937,3.9369,3.9365,3.9366,3.9385,3.9384,3.9445,3.9454,3.9401,3.9402,3.9402,0,3.9142,3.9161,3.9181,3.9194,3.9205,3.9225,3.9239,3.9244,3.9258,3.9279,3.9293,3.9316,3.9334,3.937,3.938,3.9401,3.94,3.942,3.9403,3.9402,3.9401,3.9401,3.9403,3.9424,3.9424,3.9425,3.9425,0,3.9186,3.9189,3.9209,3.923,3.9246,3.9263,3.928,3.929,3.9298,3.9314,3.9337,3.9352,3.938,3.9402,3.9423,3.9433,3.9431,3.943,3.9436,3.9436,3.9434,3.9437,3.9375,3.9429,3.9429,3.9428,3.9428,3.9428,3.9216,3.9234,3.9251,3.9273,3.9286,3.9302,3.9319,3.9328,3.9348,3.9372,3.9374,3.9399,3.9415,3.9444,3.9455,3.9475,3.9469,3.9477,3.9479,3.9481,3.9483,3.943,3.9478,3.9478,3.9478,3.9478,3.9478,0,3.9261,3.9272,3.9292,3.9316,3.9333,3.933,3.9348,3.9363,3.9386,3.9402,3.942,3.9447,3.9469,3.9482,3.9504,3.9517,3.9517,3.9523,3.9522,3.9525,3.9487,3.948,3.9523,3.9523,3.9523,3.9523,3.9523,3.9523,3.9286,3.9315,3.9321,3.9357,3.9368,3.9393,3.9404,3.9419,3.9431,3.9462,3.9481,3.9489,3.9503,3.9527,3.9547,3.955,3.9558,3.9565,3.9568,3.9532,3.9527,3.9523,3.9517,3.9567,3.9567,3.9604,3.9605,3.9605]}]]